Simultaneous Nadir Overpasses (SNOs) Predictions

Prediction of SNOs between AURA and NPP Satellite Orbit:

Table of predicted SNOs for the next 14.0 days since TLE Epoch: 12/5/2016
Index Date (AURA) Time (AURA) Lat,Lon (AURA) SZA (AURA ) Date (NPP) Time (NPP) Lat,Lon (NPP) SZA (NPP ) Distance(km) Time Diff (sec)
1 12/05/2016 02:51:40 79.56, 34.29 113.91 12/05/2016 02:51:24 79.57, 34.34 113.92 1.10 16
2 12/05/2016 03:41:02 -79.75,-156.68 66.35 12/05/2016 03:42:04 -79.75,-156.75 66.39 1.52 62
3 12/07/2016 18:18:49 -79.35, -18.95 65.45 12/07/2016 18:17:41 -79.35, -18.93 65.40 0.41 68
4 12/07/2016 19:08:07 79.64, 150.75 114.15 12/07/2016 19:08:16 79.65, 150.85 114.13 2.06 9
5 12/10/2016 10:35:15 -79.46, 97.71 65.30 12/10/2016 10:34:32 -79.47, 97.78 65.28 1.60 43
6 12/10/2016 11:24:36 79.64, -93.38 114.46 12/10/2016 11:25:11 79.64, -93.52 114.46 2.94 35
7 12/13/2016 02:51:43 -79.49,-146.20 65.09 12/13/2016 02:51:26 -79.48,-146.34 65.05 3.17 17
8 12/13/2016 03:41:02 79.74, 23.26 114.57 12/13/2016 03:42:02 79.74, 23.20 114.53 1.13 60
9 12/15/2016 18:18:46 79.39, 161.33 115.26 12/15/2016 18:17:36 79.40, 161.42 115.29 2.02 70
10 12/15/2016 19:08:08 -79.59, -29.63 65.02 12/15/2016 19:08:16 -79.59, -29.69 65.02 1.17 8
11 12/18/2016 10:35:13 79.44, -82.43 115.33 12/18/2016 10:34:29 79.43, -82.51 115.38 1.84 44




NCC Satellite Simultaneous Nadir Overpasses (SNOs) Prediction Service
